SESAT 2 (EXPRESS AM-22)

导读 | 星芒AI

SESAT 2(EXPRESS AM-22)是俄罗斯制造的一颗通信卫星,由RSC Energia设计,于2014年12月19日由质子-M火箭发射。该卫星位于东经55度轨道位置,主要为俄罗斯及周边地区提供固定卫星服务、广播和政府通信。卫星搭载C波段和Ku波段转发器,设计寿命为10年,具备高功率和先进有效载荷,支持多种通信应用。它在增强俄罗斯通信基础设施和国家安全方面发挥重要作用。

基本信息
目录编号:
28134
目录名称:
SESAT 2 (EXPRESS AM-22)
国际标识:
2003-060A
轨道中心:
EARTH
卫星名称:
SESAT 2 (EXPRESS AM-22)
卫星全名:
--
卫星状态:
在轨 (已飞行7976 天)
发射日期:
2003-12-28 UTC
国别 :
(EUTE)
星等 :
--
轨道信息
数据来源 国际轨道数据 AOE轨道数据
星历时间 2025-10-28T13:57:29+0800
1天前
查看轨道信息
2025-10-29T11:00:00+0800
4小时前
查看轨道信息
半长轴 42421.608km 42421.779km
偏心率 0.0013037 0.0013121
轨道倾角 7.701° 7.703°
近地点辐角 142.169° 142.342°
升交点赤经 66.673° 66.663°
平近点角 228.386° 181.841°
近地点 35988.167km 35987.982km
远地点 36098.779km 36099.306km
周期 1449.240分钟 1449.249分钟
每日圈数 0.993624 0.993618
详细信息
使用方式:
暂无
2D轨道图
3D轨道图
轨道高度分析图
轨道倾角分析图
轨道综合分析图
查看轨道综合分析图